| time (UTC) | temp F | wind direction | speed MPH | gust MPH | rain 1hr in | rain 24hr in | rain mn in | humidity % | barometer mb |
| 20260505124524 | 47 | 327 | 1.0 | 5.0 | 0.00 | 0.00 | 0.00 | 50 | 1002.4 |
| 20260505123039 | 47 | 316 | 1.0 | 3.0 | 0.00 | 0.00 | 0.00 | 52 | 1002.3 |
| 20260505121526 | 47 | 345 | 1.0 | 5.0 | 0.00 | 0.00 | 0.00 | 51 | 1002.2 |
| 20260505120028 | 47 | 328 | 3.0 | 5.0 | 0.00 | 0.00 | 0.00 | 51 | 1001.9 |
| 20260505114520 | 46 | 319 | 2.0 | 3.0 | 0.00 | 0.00 | 0.00 | 54 | 1001.8 |
| 20260505113018 | 46 | 313 | 0.0 | 2.0 | 0.00 | 0.00 | 0.00 | 54 | 1001.5 |
| 20260505111517 | 46 | 325 | 1.0 | 6.0 | 0.00 | 0.00 | 0.00 | 54 | 1001.1 |
| 20260505101503 | 46 | 314 | 2.0 | 6.0 | 0.00 | 0.00 | 0.00 | 54 | 1000.0 |
| 20260505100002 | 46 | 324 | 3.0 | 6.0 | 0.00 | 0.00 | 0.00 | 55 | 999.8 |
| 20260505094608 | 46 | 311 | 5.0 | 9.0 | 0.00 | 0.00 | 0.00 | 55 | 999.6 |
| 20260505093059 | 46 | 8 | 4.0 | 9.0 | 0.00 | 0.00 | 0.00 | 56 | 999.3 |
| 20260505091556 | 46 | 326 | 3.0 | 9.0 | 0.00 | 0.00 | 0.00 | 58 | 999.1 |
| 20260505090107 | 46 | 342 | 4.0 | 8.0 | 0.00 | 0.00 | 0.00 | 59 | 998.9 |
| 20260505084554 | 46 | 328 | 4.0 | 9.0 | 0.00 | 0.00 | 0.00 | 60 | 999.0 |
| 20260505083106 | 46 | 3 | 6.0 | 9.0 | 0.00 | 0.00 | 0.00 | 59 | 998.6 |
| 20260505081551 | 46 | 338 | 5.0 | 11.0 | 0.00 | 0.00 | 0.00 | 59 | 998.6 |
| 20260505080053 | 46 | 3 | 7.0 | 12.0 | 0.00 | 0.00 | 0.00 | 58 | 998.4 |
| 20260505074545 | 46 | 7 | 7.0 | 13.0 | 0.00 | 0.00 | 0.00 | 59 | 997.9 |
| 20260505073055 | 46 | 16 | 8.0 | 12.0 | 0.00 | 0.00 | 0.00 | 59 | 997.7 |
| 20260505071542 | 46 | 8 | 7.0 | 12.0 | 0.00 | 0.00 | 0.00 | 59 | 997.7 |
| 20260505070051 | 46 | 18 | 10.0 | 14.0 | 0.00 | 0.00 | 0.00 | 62 | 997.5 |
| 20260505064540 | 46 | 6 | 5.0 | 12.0 | 0.00 | 0.00 | 0.00 | 61 | 997.6 |
| 20260505063041 | 46 | 11 | 8.0 | 13.0 | 0.00 | 0.00 | 0.00 | 63 | 997.8 |
| 20260505061538 | 46 | 25 | 12.0 | 16.0 | 0.00 | 0.00 | 0.00 | 62 | 997.8 |
| 20260505060037 | 46 | 25 | 9.0 | 15.0 | 0.00 | 0.00 | 0.00 | 62 | 997.7 |
| 20260505054535 | 45 | 16 | 11.0 | 16.0 | 0.00 | 0.00 | 0.00 | 65 | 997.3 |
| 20260505053032 | 46 | 13 | 11.0 | 17.0 | 0.00 | 0.00 | 0.00 | 64 | 997.3 |
| 20260505051533 | 46 | 24 | 14.0 | 17.0 | 0.00 | 0.00 | 0.00 | 62 | 996.9 |
| 20260505041536 | 50 | 296 | 1.0 | 9.0 | 0.00 | 0.00 | 0.00 | 68 | 996.5 |
| 20260505040013 | 50 | 200 | 0.0 | 12.0 | 0.00 | 0.00 | 0.00 | 64 | 996.2 |
| 20260505034512 | 49 | 31 | 18.0 | 27.0 | 0.00 | 0.00 | 0.00 | 59 | 995.2 |
| 20260505033010 | 58 | 25 | 13.0 | 17.0 | 0.00 | 0.00 | 0.00 | 48 | 994.7 |
| 20260505031509 | 63 | 314 | 0.0 | 0.0 | 0.00 | 0.00 | 0.00 | 41 | 994.4 |
| 20260505030009 | 62 | 20 | 0.0 | 0.0 | 0.00 | 0.00 | 0.00 | 42 | 994.2 |
| 20260505024508 | 62 | 125 | 0.0 | 0.0 | 0.00 | 0.00 | 0.00 | 43 | 994.3 |
| 20260505023008 | 62 | 125 | 0.0 | 0.0 | 0.00 | 0.00 | 0.00 | 41 | 994.3 |
| 20260505021509 | 62 | 125 | 0.0 | 2.0 | 0.00 | 0.00 | 0.00 | 40 | 994.3 |
| 20260505020009 | 62 | 78 | 0.0 | 0.0 | 0.00 | 0.00 | 0.00 | 41 | 994.5 |
| 20260505014507 | 63 | 169 | 0.0 | 0.0 | 0.00 | 0.00 | 0.00 | 40 | 994.6 |
| 20260505013006 | 64 | 169 | 0.0 | 0.0 | 0.00 | 0.00 | 0.00 | 36 | 994.4 |
| 20260505011508 | 66 | 169 | 0.0 | 2.0 | 0.00 | 0.00 | 0.00 | 33 | 994.2 |
| 20260505010004 | 67 | 134 | 0.0 | 3.0 | 0.00 | 0.00 | 0.00 | 31 | 994.3 |
| 20260505004503 | 68 | 177 | 0.0 | 4.0 | 0.00 | 0.00 | 0.00 | 30 | 994.2 |
| 20260505003004 | 68 | 171 | 1.0 | 4.0 | 0.00 | 0.00 | 0.00 | 29 | 994.1 |
| 20260505001501 | 69 | 146 | 1.0 | 4.0 | 0.00 | 0.00 | 0.00 | 28 | 993.9 |
| 20260505000002 | 70 | 42 | 1.0 | 0.0 | 0.00 | 0.00 | 0.00 | 26 | 993.8 |
| 20260504234615 | 71 | 174 | 1.0 | 5.0 | 0.00 | 0.00 | 0.00 | 25 | 993.8 |
| 20260504233108 | 72 | 153 | 1.0 | 4.0 | 0.00 | 0.00 | 0.00 | 24 | 993.9 |
| 20260504231557 | 73 | 181 | 3.0 | 8.0 | 0.00 | 0.00 | 0.00 | 23 | 994.3 |
| 20260504230055 | 73 | 52 | 2.0 | 11.0 | 0.00 | 0.00 | 0.00 | 20 | 994.5 |
| 20260504224607 | 73 | 146 | 3.0 | 7.0 | 0.00 | 0.00 | 0.00 | 19 | 994.7 |
| 20260504223051 | 73 | 152 | 2.0 | 10.0 | 0.00 | 0.00 | 0.00 | 19 | 995.1 |
| 20260504221548 | 73 | 153 | 3.0 | 7.0 | 0.00 | 0.00 | 0.00 | 18 | 995.3 |
| 20260504220048 | 74 | 163 | 2.0 | 8.0 | 0.00 | 0.00 | 0.00 | 19 | 995.3 |
| 20260504214547 | 75 | 191 | 3.0 | 8.0 | 0.00 | 0.00 | 0.00 | 18 | 995.3 |
| 20260504213107 | 75 | 173 | 3.0 | 11.0 | 0.00 | 0.00 | 0.00 | 17 | 995.4 |
| 20260504211545 | 74 | 270 | 4.0 | 11.0 | 0.00 | 0.00 | 0.00 | 17 | 995.4 |
| 20260504210044 | 74 | 203 | 3.0 | 10.0 | 0.00 | 0.00 | 0.00 | 19 | 995.6 |
| 20260504204545 | 74 | 143 | 1.0 | 13.0 | 0.00 | 0.00 | 0.00 | 19 | 995.5 |
| 20260504203047 | 74 | 176 | 3.0 | 12.0 | 0.00 | 0.00 | 0.00 | 21 | 995.7 |
| 20260504201540 | 74 | 122 | 4.0 | 18.0 | 0.00 | 0.00 | 0.00 | 18 | 995.7 |
| 20260504200039 | 74 | 176 | 4.0 | 11.0 | 0.00 | 0.00 | 0.00 | 18 | 995.7 |
| 20260504194547 | 75 | 245 | 5.0 | 11.0 | 0.00 | 0.00 | 0.00 | 17 | 995.8 |
| 20260504193042 | 75 | 159 | 6.0 | 17.0 | 0.00 | 0.00 | 0.00 | 18 | 995.9 |
| 20260504191532 | 75 | 209 | 6.0 | 13.0 | 0.00 | 0.00 | 0.00 | 21 | 996.1 |
| 20260504190031 | 75 | 161 | 4.0 | 11.0 | 0.00 | 0.00 | 0.00 | 21 | 996.0 |
| 20260504184529 | 75 | 194 | 6.0 | 11.0 | 0.00 | 0.00 | 0.00 | 21 | 996.2 |
| 20260504183027 | 74 | 186 | 3.0 | 12.0 | 0.00 | 0.00 | 0.00 | 25 | 996.4 |
| 20260504181524 | 73 | 297 | 7.0 | 16.0 | 0.00 | 0.00 | 0.00 | 24 | 996.4 |
| 20260504180022 | 73 | 206 | 3.0 | 14.0 | 0.00 | 0.00 | 0.00 | 25 | 996.7 |
| 20260504174520 | 72 | 146 | 4.0 | 13.0 | 0.00 | 0.00 | 0.00 | 24 | 997.1 |
| 20260504173031 | 72 | 192 | 6.0 | 14.0 | 0.00 | 0.00 | 0.00 | 24 | 997.2 |
| 20260504171521 | 71 | 180 | 4.0 | 11.0 | 0.00 | 0.00 | 0.00 | 29 | 997.4 |